Lake Pamona Weather Center

Moon Phase Calendar



Lake Pamona Water Level
Online Cameras

 


      

Current Conditions in Midway
2/27/2021 1:28:07 PM

78°F
Feels Like 79
Clear
Humidity
57%
Pressure
30.18"
Wind
5.8 mph (SSE)
Dew Point
62°F
UV Index
7/10 (High)
Visibility
6 mi

Hourly Forecast

Date & Time Sat, Feb 27
1:00 PM
Sat, Feb 27
2:00 PM
Sat, Feb 27
3:00 PM
Sat, Feb 27
4:00 PM
Sat, Feb 27
5:00 PM
Sat, Feb 27
6:00 PM
Sat, Feb 27
7:00 PM
Sat, Feb 27
8:00 PM
Sat, Feb 27
9:00 PM
Sat, Feb 27
10:00 PM
Sat, Feb 27
11:00 PM
Sun, Feb 28
12:00 AM
Sun, Feb 28
1:00 AM
Sun, Feb 28
2:00 AM
Sun, Feb 28
3:00 AM
Sun, Feb 28
4:00 AM
Sun, Feb 28
5:00 AM
Sun, Feb 28
6:00 AM
Sun, Feb 28
7:00 AM
Sun, Feb 28
8:00 AM
Sun, Feb 28
9:00 AM
Sun, Feb 28
10:00 AM
Sun, Feb 28
11:00 AM
Sun, Feb 28
12:00 PM
Sun, Feb 28
1:00 PM
Sun, Feb 28
2:00 PM
Sun, Feb 28
3:00 PM
Sun, Feb 28
4:00 PM
Sun, Feb 28
5:00 PM
Sun, Feb 28
6:00 PM
Sun, Feb 28
7:00 PM
Sun, Feb 28
8:00 PM
Sun, Feb 28
9:00 PM
Sun, Feb 28
10:00 PM
Sun, Feb 28
11:00 PM
Mon, Mar 1
12:00 AM
Mon, Mar 1
1:00 AM
Mon, Mar 1
2:00 AM
Mon, Mar 1
3:00 AM
Mon, Mar 1
4:00 AM
Mon, Mar 1
5:00 AM
Mon, Mar 1
6:00 AM
Mon, Mar 1
7:00 AM
Mon, Mar 1
8:00 AM
Mon, Mar 1
9:00 AM
Mon, Mar 1
10:00 AM
Mon, Mar 1
11:00 AM
Mon, Mar 1
12:00 PM
Condition
Clear

Clouds

Clouds

Clouds

Clouds

Clouds

Clouds

Clouds

Clouds

Clouds

Clouds

Clouds

Clouds

Clouds

Clouds

Clouds

Clouds

Clouds

Clouds

Clouds

Clouds

Clouds

Clouds

Clouds

Clouds

Clouds

Clouds

Clouds

Clouds

Clouds

Clouds

Clouds

Clouds

Clouds

Clouds

Clouds

Clouds

Clouds

Clouds

Clouds

Clouds

Clouds

Clouds

Clouds

Clouds

Clouds

Clouds

Clouds
Temperature 78°F77°F76°F72°F71°F68°F66°F66°F65°F65°F66°F66°F65°F65°F64°F65°F65°F65°F64°F67°F71°F74°F77°F77°F77°F77°F77°F75°F71°F68°F67°F66°F66°F66°F65°F64°F64°F64°F64°F65°F65°F64°F64°F67°F71°F76°F78°F80°F
Feels Like 77°F78°F76°F72°F71°F69°F66°F66°F66°F66°F66°F65°F65°F65°F65°F66°F66°F66°F65°F68°F72°F75°F77°F78°F76°F76°F76°F73°F70°F67°F66°F66°F66°F65°F65°F64°F65°F65°F64°F65°F65°F64°F64°F66°F70°F74°F76°F78°F
Cloudiness 1%11%15%30%36%48%57%100%97%98%99%99%99%97%98%98%91%80%70%78%40%28%22%36%46%100%100%100%100%100%100%100%78%85%89%72%60%92%96%97%98%94%95%100%100%94%95%95%
Visibility 6 mi6 mi6 mi6 mi6 mi6 mi6 mi6 mi6 mi6 mi6 mi6 mi6 mi6 mi6 mi6 mi6 mi6 mi6 mi6 mi6 mi6 mi6 mi6 mi6 mi6 mi6 mi6 mi6 mi6 mi6 mi6 mi6 mi6 mi6 mi6 mi6 mi6 mi6 mi6 mi6 mi6 mi6 mi6 mi6 mi6 mi6 mi6 mi
Precipitation 0%4%20%28%32%28%20%0%0%0%0%0%0%0%0%0%0%0%0%0%0%0%0%0%0%0%0%0%0%0%0%0%0%0%0%0%0%0%0%0%0%0%0%0%0%0%0%4%
Humidity 57%63%68%78%79%84%89%89%93%94%94%93%94%94%96%96%97%97%97%93%82%72%66%65%66%65%66%72%78%82%87%89%89%89%91%93%93%91%89%88%89%91%92%87%77%70%66%59%
Dew Point 62°F64°F65°F65°F64°F64°F63°F62°F63°F64°F64°F64°F63°F63°F63°F64°F64°F64°F63°F65°F65°F65°F65°F65°F65°F65°F65°F65°F64°F63°F63°F63°F63°F63°F63°F62°F62°F61°F61°F61°F61°F62°F62°F63°F64°F66°F66°F65°F
Pressure 30.18"30.18"30.15"30.15"30.15"30.18"30.21"30.21"30.21"30.21"30.21"30.21"30.18"30.18"30.18"30.18"30.18"30.18"30.21"30.21"30.21"30.21"30.21"30.21"30.18"30.15"30.12"30.09"30.09"30.09"30.09"30.09"30.09"30.09"30.09"30.09"30.09"30.06"30.03"30"30.03"30.03"30.03"30.03"30.06"30.03"30.03"30.03"
Wind Speed 9 mph8.5 mph9.4 mph9.2 mph9.1 mph7.4 mph6.3 mph6.7 mph6.6 mph7.7 mph8.3 mph8.3 mph7.1 mph7.7 mph6.2 mph6.2 mph6.7 mph6.5 mph5.8 mph6.2 mph8.4 mph8.9 mph8.5 mph9 mph9.9 mph10.1 mph10.4 mph11.2 mph11.6 mph10.5 mph9.4 mph8.7 mph8 mph8.5 mph7.8 mph6.4 mph4.8 mph5.3 mph6.2 mph6.6 mph6.4 mph6.3 mph7.6 mph8.9 mph10.6 mph12.4 mph13.4 mph13.1 mph
Wind
Direction
159°
SSE
152°
SSE
148°
SSE
152°
SSE
155°
SSE
156°
SSE
157°
SSE
162°
SSE
167°
SSE
162°
SSE
173°
S
174°
S
185°
S
181°
S
193°
SSW
194°
SSW
182°
S
182°
S
187°
S
194°
SSW
197°
SSW
196°
SSW
190°
S
174°
S
166°
SSE
168°
SSE
169°
S
167°
SSE
167°
SSE
170°
S
179°
S
183°
S
189°
S
186°
S
193°
SSW
198°
SSW
212°
SSW
213°
SSW
209°
SSW
215°
SW
218°
SW
218°
SW
211°
SSW
212°
SSW
218°
SW
225°
SW
233°
SW
238°
WSW

Daily Forecast

Date High Low Precip. Humidity
Today
Feb 27

Clear
78 °F
58 °F
4%
64%
Sunday
Feb 28

Clouds
78 °F
64 °F
0%
64%
Monday
Mar 1

Rain
79 °F
60 °F
95%
65%
Tuesday
Mar 2

Rain
58 °F
46 °F
100%
92%
Wednesday
Mar 3

Rain
58 °F
53 °F
100%
94%
Thursday
Mar 4

Rain
65 °F
54 °F
28%
74%
Friday
Mar 5

Rain
70 °F
59 °F
100%
91%
Saturday
Mar 6

Rain
62 °F
50 °F
100%
75%
Sunday
Mar 7

Rain
54 °F
42 °F
21%
55%
Monday
Mar 8

Clear
61 °F
35 °F
0%
37%
Tuesday
Mar 9

Clear
64 °F
42 °F
0%
43%
Wednesday
Mar 10

Clear
67 °F
45 °F
0%
53%
Thursday
Mar 11

Clear
72 °F
51 °F
0%
51%
Friday
Mar 12

Rain
64 °F
52 °F
40%
77%
Saturday
Mar 13

Clouds
68 °F
52 °F
0%
59%
Sunday
Mar 14

Clouds
73 °F
58 °F
0%
69%


Temperature 8-14 Day Outlook



Precipitation 8-14 Day Outlook




Quick Links
Lake Pamona News
Lake Pamona Photos
Lake Pamona Videos




About Us
Contact Us
Site Map
Search Site
Advertise With Us
   
Pamona.LakesOnline.com
THE LAKE PAMONA WEBSITE

Copyright 2021, Lakes Online
Privacy    |    Legal